Tracking 23584 objects as of 3-Aug-2021
HD Live streaming from Space Station
objects crossing your sky now

OF-2

Track OF-2 now!
10-day predictions
OF-2 is classified as:


NORAD ID: 45113
Int'l Code: 2019-071C
Perigee: 456.3 km
Apogee: 473.2 km
Inclination: 51.6 °
Period: 93.7 minutes
Semi major axis: 6835 km
RCS: Unknown
Launch date: November 2, 2019
Source: United States (US)
Launch site: WALLOPS ISLAND (WLPIS)

Uplink (MHz):
Downlink (MHz): 435.040/2426.000
Beacon (MHz):
Mode: 9k6 GMSK/3-5Mbps QPSK
Call sign: KG5UAK
Status: Inactive

aabbcc
Your satellite tracking list
Your tracking list is empty




NASA's NSSDC Master Catalog

Two Line Element Set (TLE):
1 45113U 19071C   21215.05644240  .00002623  00000-0  84171-4 0  9996
2 45113  51.6410 171.4948 0012418 100.8111 259.4270 15.36114006 84339
Source of the keplerian elements: Caltech